Location: Carrières
(48.9495°N, 2.0407°E)
Time: 03:06:52
(UTC+00:00)

S-56A Canister/Altair - All Passes

Search period start: 22 April 2024 00:00
Search period end: 02 May 2024 00:00
Orbit: 639 x 2488 km, 38.9° (Epoch: 21 April)

Date Brightness Start Highest point End Pass type
(mag) Time Alt. Az. Time Alt. Az. Time Alt. Az.
22 Apr - 15:50:19 10° SSW 15:54:01 20° SSE 15:58:32 10° ESE daylight
22 Apr - 17:51:26 10° WSW 17:56:44 36° S 18:04:13 10° ESE daylight
22 Apr - 19:54:00 10° WSW 20:00:15 34° SSW 20:09:05 10° SE visible
22 Apr - 21:58:17 10° WSW 22:04:05 19° SSW 22:11:16 10° S visible
23 Apr - 15:17:44 10° S 15:20:49 16° SSE 15:24:23 10° ESE daylight
23 Apr - 17:18:27 10° SW 17:23:22 34° S 17:30:07 10° ESE daylight
23 Apr - 19:20:52 10° WSW 19:26:43 33° S 19:34:59 10° SE visible
23 Apr - 21:24:49 10° WSW 21:30:27 20° SSW 21:37:34 10° SSE visible
24 Apr - 14:45:19 10° S 14:47:37 13° SSE 14:50:09 10° ESE daylight
24 Apr - 16:45:30 10° SW 16:50:02 31° SSE 16:56:06 10° ESE daylight
24 Apr - 18:47:46 10° WSW 18:53:14 33° S 19:00:54 10° SE daylight
24 Apr - 20:51:25 10° WSW 20:56:51 21° SSW 21:03:48 10° SSE visible
25 Apr - 14:13:26 10° SSE 14:14:25 11° SSE 14:15:27 10° SE daylight
25 Apr - 16:12:33 10° SW 16:16:46 28° SSE 16:22:09 10° ESE daylight
25 Apr - 18:14:41 10° WSW 18:19:48 32° S 18:26:53 10° SE daylight
25 Apr - 20:18:06 10° WSW 20:23:18 21° SSW 20:30:00 10° SSE visible
26 Apr - 15:39:37 10° SW 15:43:31 25° SSE 15:48:16 10° ESE daylight
26 Apr - 17:41:37 10° WSW 17:46:24 32° S 17:52:54 10° SE daylight
26 Apr - 19:44:51 10° WSW 19:49:47 22° SSW 19:56:11 10° SSE visible
27 Apr - 15:06:42 10° SSW 15:10:16 22° SSE 15:14:26 10° ESE daylight
27 Apr - 17:08:34 10° WSW 17:13:04 30° S 17:18:59 10° ESE daylight
27 Apr - 19:11:38 10° WSW 19:16:18 22° SSW 19:22:23 10° SSE daylight
28 Apr - 14:33:48 10° SSW 14:37:03 19° SSE 14:40:40 10° ESE daylight
28 Apr - 16:35:31 10° WSW 16:39:45 29° S 16:45:09 10° ESE daylight
28 Apr - 18:38:27 10° WSW 18:42:53 22° SSW 18:48:35 10° SSE daylight
29 Apr - 14:00:54 10° SSW 14:03:49 17° SSE 14:06:55 10° ESE daylight
29 Apr - 16:02:27 10° SW 16:06:27 28° S 16:11:22 10° ESE daylight
29 Apr - 18:05:17 10° WSW 18:09:29 22° SSW 18:14:49 10° SSE daylight
30 Apr - 13:28:01 10° SSW 13:30:36 15° SSE 13:33:13 10° ESE daylight
30 Apr - 15:29:21 10° SW 15:33:11 26° S 15:37:41 10° ESE daylight
30 Apr - 17:32:08 10° WSW 17:36:07 22° SSW 17:41:06 10° SE daylight
30 Apr - 19:38:53 10° SSW 19:39:16 10° SSW 19:39:39 10° SSW visible
01 May - 12:55:10 10° S 12:57:21 13° SSE 12:59:30 10° SE daylight
01 May - 14:56:15 10° SW 14:59:56 25° S 15:04:03 10° ESE daylight
01 May - 16:58:58 10° WSW 17:02:46 22° SSW 17:07:25 10° SE daylight
01 May - 19:04:35 10° SW 19:05:50 11° SSW 19:07:09 10° SSW daylight
